Simultaneous Nadir Overpasses (SNOs) Predictions

Prediction of SNOs between GOES-16 and NPP Satellite Orbit:

Table of predicted SNOs for the next 14.0 days since TLE Epoch: 2/25/2023
Index Date Time (GOES-16) GOES-16 Lat,Lon NPP Lat,Lon Distance(km) Time Diff (sec)
1 02/25/2023 06:18:49 -0.07, -75.19 -0.50, -73.37 208.24 80
2 02/26/2023 18:40:45 0.07, -75.19 -0.71, -78.66 394.99 80
3 02/27/2023 18:24:39 0.07, -75.20 0.28, -74.12 122.55 80
4 03/01/2023 06:46:26 -0.06, -75.21 0.89, -79.38 475.60 80
5 03/02/2023 06:25:02 -0.06, -75.22 -0.17, -74.85 42.22 80
6 03/04/2023 18:28:12 0.05, -75.24 -0.03, -75.61 41.88 80
7 03/05/2023 18:12:06 0.04, -75.25 0.97, -71.07 476.58 80
8 03/07/2023 06:33:54 -0.04, -75.28 0.19, -76.33 119.82 80
9 03/08/2023 06:12:28 -0.04, -75.29 -0.81, -71.79 398.92 80
10 03/09/2023 18:37:03 0.04, -75.32 -0.36, -77.09 201.86 80
11 03/10/2023 18:15:38 0.04, -75.34 0.65, -72.55 317.26 80
